Location: *
(48.8667°N, 2.3331°E)
Time: 18:18:24
(UTC+00:00)

STARLINK-29 - Pass Details

Date: 09 April 2020
Orbit: 387 x 401 km, 53.0° (Epoch: 26 May)

Event Time Altitude Azimuth Distance (km) Brightness Sun altitude
Rises 20:16:41 0° 248° (WSW) 2,281 7.3 -16.2°
Reaches altitude 10° 20:18:44 10° 249° (WSW) 1,430 6.2 -16.5°
Maximum altitude 20:21:56 79° 337° (NNW) 408 3.0 -17.0°
Enters shadow 20:23:23 30° 60° (ENE) 746 4.1 -17.2°
